EW9565 Weather Reports


time (UTC)temp
F
wind
direction
speed
knots
gust
knots
rain 1hr
in
rain 24hr
in
rain mn
in
humidity
%
barometer
mb
20260506114054 44 147 0.0 1.7 0.00 0.07 0.00 70 1020.2
20260506113541 44 152 0.0 1.7 0.00 0.07 0.00 70 1020.3
20260506113023 44 122 0.0 2.6 0.00 0.07 0.00 70 1020.2
20260506112557 44 120 0.9 2.6 0.00 0.07 0.00 71 1020.1
20260506112026 44 110 0.0 1.7 0.00 0.07 0.00 70 1020.2
20260506111529 44 106 0.9 0.9 0.00 0.07 0.00 71 1020.1
20260506111022 44 109 0.0 1.7 0.00 0.07 0.00 70 1020.1
20260506110524 44 84 0.0 1.7 0.00 0.07 0.00 70 1020.0
20260506110036 44 136 0.0 1.7 0.00 0.07 0.00 71 1019.9
20260506105529 44 94 0.9 1.7 0.00 0.07 0.00 72 1019.8
20260506105038 44 96 0.9 1.7 0.00 0.07 0.00 72 1019.8
20260506104520 44 101 0.0 1.7 0.00 0.07 0.00 72 1019.8
20260506104031 44 71 0.9 1.7 0.00 0.07 0.00 73 1019.8
20260506103543 44 71 0.0 1.7 0.00 0.07 0.00 73 1019.8
20260506103026 44 71 1.7 1.7 0.00 0.07 0.00 74 1019.7
20260506102540 44 84 0.0 0.9 0.00 0.07 0.00 74 1019.7
20260506102021 44 103 0.0 0.9 0.00 0.07 0.00 73 1019.7
20260506101533 45 103 0.0 0.9 0.00 0.07 0.00 72 1019.6
20260506101045 45 105 0.0 0.9 0.00 0.07 0.00 72 1019.5
20260506100542 45 105 0.0 0.9 0.00 0.07 0.00 73 1019.4
20260506100033 45 105 0.0 0.9 0.00 0.07 0.00 72 1019.4
20260506095546 45 105 0.0 0.9 0.00 0.07 0.00 70 1019.5
20260506095026 46 105 0.0 0.9 0.00 0.07 0.00 70 1019.3
20260506094558 46 246 0.0 0.9 0.00 0.07 0.00 70 1019.5
20260506094028 46 246 0.0 2.6 0.00 0.07 0.00 69 1019.5
20260506093536 46 132 0.0 2.6 0.00 0.07 0.00 69 1019.3
20260506093048 46 264 0.0 0.9 0.00 0.07 0.00 70 1019.3
20260506092532 46 267 0.9 0.9 0.00 0.07 0.00 70 1019.3
20260506092042 47 17 0.0 0.9 0.00 0.07 0.00 69 1019.4
20260506091555 47 17 0.0 0.9 0.00 0.07 0.00 68 1019.3
20260506091043 47 17 0.0 0.9 0.00 0.07 0.00 68 1019.4
20260506090525 47 313 0.0 2.6 0.00 0.07 0.00 68 1019.4
20260506090037 48 313 0.0 2.6 0.00 0.07 0.00 68 1019.3
20260506085522 48 308 0.0 2.6 0.00 0.07 0.00 68 1019.3
20260506085027 48 132 0.0 1.7 0.00 0.07 0.00 68 1019.1
20260506084539 48 129 0.0 0.0 0.00 0.07 0.00 68 1019.2
20260506084022 49 129 0.0 2.6 0.00 0.07 0.00 68 1019.2
20260506083532 48 210 0.9 2.6 0.00 0.07 0.00 68 1019.3
20260506083044 48 224 0.9 2.6 0.00 0.07 0.00 71 1019.2
20260506082529 47 148 0.0 0.0 0.00 0.07 0.00 72 1019.3
20260506082039 48 115 0.0 0.0 0.00 0.07 0.00 71 1019.5
20260506081521 48 115 0.0 0.9 0.00 0.07 0.00 70 1019.4
20260506081104 48 115 0.0 0.9 0.00 0.07 0.00 70 1019.4
20260506080524 48 350 0.0 0.9 0.00 0.07 0.00 70 1019.5
20260506073042 50 4 0.0 0.0 0.00 0.07 0.00 65 1019.5
20260506072526 50 4 0.0 0.0 0.00 0.07 0.00 64 1019.6
20260506072037 51 4 0.0 0.0 0.00 0.07 0.00 64 1019.5
20260506071548 51 4 0.0 0.9 0.00 0.07 0.00 62 1019.5
20260506071029 51 4 0.0 0.9 0.00 0.07 0.00 61 1019.5
20260506070520 51 4 0.0 0.9 0.00 0.07 0.00 60 1019.6
20260506062038 52 323 0.9 2.6 0.00 0.07 0.00 59 1019.3
20260506061530 52 340 0.0 4.3 0.00 0.07 0.00 59 1019.3
20260506061033 52 331 0.9 4.3 0.00 0.07 0.00 59 1019.1
20260506060525 52 342 1.7 4.3 0.00 0.07 0.00 59 1019.1
20260506051023 52 328 1.7 5.2 0.00 0.07 0.07 62 1019.2
20260506050533 52 330 2.6 5.2 0.00 0.07 0.07 62 1019.2
20260506045038 52 1 1.7 6.1 0.00 0.07 0.07 62 1019.1
20260506044549 52 37 3.5 6.1 0.00 0.07 0.07 63 1019.1
20260506044031 52 37 3.5 8.7 0.00 0.07 0.07 62 1019.1
20260506043523 52 10 4.3 9.6 0.00 0.07 0.07 62 1019.1
20260506043021 52 21 4.3 9.6 0.00 0.07 0.07 62 1019.1
20260506042535 52 27 4.3 8.7 0.00 0.07 0.07 62 1019.0
20260506042044 52 323 3.5 7.0 0.00 0.07 0.07 62 1018.9
20260506041527 52 37 3.5 7.8 0.00 0.07 0.07 62 1018.8
20260506041039 52 25 3.5 9.6 0.00 0.07 0.07 63 1018.6
20260506040548 52 359 4.3 9.6 0.00 0.07 0.07 63 1018.6
20260506040051 52 34 4.3 13.9 0.00 0.07 0.07 64 1018.6
20260506035523 52 21 6.1 13.9 0.00 0.07 0.07 64 1018.5
20260506035054 52 24 5.2 12.2 0.00 0.07 0.07 64 1018.3
20260506034543 52 25 6.1 10.4 0.00 0.07 0.07 65 1018.4
20260506034045 52 4 6.1 10.4 0.00 0.07 0.07 65 1018.3
20260506033535 52 345 4.3 9.6 0.00 0.07 0.07 65 1018.4
20260506033025 52 347 2.6 12.2 0.00 0.07 0.07 65 1018.4
20260506032539 52 17 7.0 13.0 0.00 0.07 0.07 64 1018.1
20260506032035 52 346 7.8 17.4 0.00 0.07 0.07 65 1017.8
20260506031526 52 346 9.6 17.4 0.00 0.07 0.07 64 1017.9
20260506031035 52 15 7.8 15.6 0.00 0.07 0.07 64 1017.9
20260506030545 52 30 6.1 16.5 0.00 0.07 0.07 64 1017.6
20260506030025 52 2 8.7 16.5 0.00 0.07 0.07 64 1017.7
20260506025608 52 15 7.8 18.2 0.00 0.07 0.07 63 1017.7
20260506025028 53 18 8.7 20.9 0.00 0.07 0.07 62 1017.5
20260506024559 53 16 9.6 20.9 0.00 0.07 0.07 61 1017.3
20260506024020 54 18 11.3 21.7 0.00 0.07 0.07 60 1017.3
20260506023531 54 326 7.8 21.7 0.00 0.07 0.07 58 1017.1
20260506023021 55 342 9.6 16.5 0.00 0.07 0.07 56 1017.0
20260506022535 57 26 9.6 15.6 0.00 0.07 0.07 54 1016.7
20260506022045 57 334 1.7 5.2 0.00 0.07 0.07 54 1016.3
20260506021521 57 285 0.0 2.6 0.00 0.07 0.07 53 1016.3
20260506021033 57 280 0.9 2.6 0.00 0.07 0.07 53 1016.1
20260506020544 58 264 0.0 2.6 0.00 0.07 0.07 52 1016.0
20260506020026 58 250 0.9 3.5 0.00 0.07 0.07 51 1015.7
20260506015539 58 265 1.7 3.5 0.00 0.07 0.07 51 1015.5
20260506015029 58 272 0.0 3.5 0.00 0.07 0.07 52 1015.5
20260506014533 59 274 0.9 5.2 0.00 0.07 0.07 51 1015.5
20260506014024 59 219 2.6 4.3 0.00 0.07 0.07 51 1015.4
20260506013526 59 273 1.7 3.5 0.00 0.07 0.07 50 1015.4
20260506013038 59 250 0.9 4.3 0.00 0.07 0.07 49 1015.4
20260506012030 60 264 0.9 3.5 0.00 0.07 0.07 49 1015.4
20260506011522 60 278 0.9 5.2 0.00 0.07 0.07 49 1015.4
20260506011023 60 268 1.7 5.2 0.00 0.07 0.07 47 1015.3
20260506010535 60 262 0.0 4.3 0.00 0.07 0.07 49 1015.2
20260506010026 61 262 0.9 2.6 0.00 0.07 0.07 52 1015.2
20260506005531 60 123 0.0 0.9 0.00 0.07 0.07 53 1015.2
20260506005057 60 123 0.9 3.5 0.00 0.07 0.07 52 1015.2
20260506004528 59 255 0.0 3.5 0.00 0.07 0.07 54 1015.4
20260506004040 59 255 1.7 2.6 0.00 0.07 0.07 53 1015.4
20260506003522 59 205 0.0 0.9 0.00 0.07 0.07 52 1015.1
20260506003034 59 170 0.0 0.9 0.00 0.07 0.07 53 1015.2
20260506002549 59 212 0.0 2.6 0.00 0.07 0.07 52 1015.2
20260506002028 60 222 1.7 3.5 0.00 0.07 0.07 52 1015.3
20260506001540 60 225 1.7 3.5 0.00 0.07 0.07 50 1015.1
20260506001022 60 127 0.9 2.6 0.00 0.07 0.07 52 1014.9
20260506000534 60 153 1.7 2.6 0.00 0.07 0.07 51 1015.0
20260506000047 60 100 0.9 2.6 0.00 0.07 0.07 50 1015.1
20260505235530 60 281 0.9 1.7 0.00 0.07 0.07 52 1015.2
20260505235039 60 285 0.9 4.3 0.00 0.07 0.07 49 1015.1
20260505234522 61 141 1.7 4.3 0.00 0.07 0.07 50 1015.1
20260505234033 61 106 0.9 3.5 0.00 0.07 0.07 50 1015.0
20260505233545 60 212 1.7 3.5 0.00 0.07 0.07 51 1015.1
20260505233035 61 51 0.9 3.5 0.00 0.07 0.07 54 1015.1
20260505232605 60 47 0.9 3.5 0.00 0.07 0.07 54 1015.2
20260505232024 59 80 2.6 6.1 0.00 0.07 0.07 56 1015.3
20260505231536 60 100 3.5 6.1 0.00 0.07 0.07 54 1015.6
20260505231047 59 29 0.9 3.5 0.00 0.07 0.07 58 1015.8
20260505230530 59 167 0.9 3.5 0.01 0.07 0.07 57 1015.8
20260505230042 60 156 1.7 3.5 0.02 0.07 0.07 58 1015.6
20260505225526 59 218 0.0 5.2 0.02 0.07 0.07 62 1015.5
20260505225036 59 34 1.7 5.2 0.04 0.07 0.07 60 1015.6
20260505224548 59 113 0.9 3.5 0.05 0.07 0.07 64 1015.6
20260505224029 58 341 0.9 3.5 0.06 0.07 0.07 59 1015.7
20260505223602 58 39 0.9 2.6 0.06 0.07 0.07 65 1015.7
20260505223033 57 113 0.0 2.6 0.06 0.07 0.07 64 1015.8
20260505222536 57 43 0.9 1.7 0.06 0.07 0.07 68 1016.0
20260505222027 56 53 0.0 0.9 0.06 0.07 0.07 68 1016.2
20260505221537 56 53 0.0 5.2 0.06 0.07 0.07 73 1016.2
20260505221049 55 333 1.7 7.0 0.06 0.07 0.07 73 1016.5
20260505220552 54 271 3.5 7.8 0.05 0.06 0.06 75 1016.7
20260505220023 54 273 2.6 6.1 0.04 0.05 0.05 73 1016.8
20260505215551 55 274 0.9 10.4 0.04 0.05 0.05 69 1016.8
20260505215033 56 202 3.5 13.0 0.02 0.03 0.03 63 1016.8
20260505214522 58 236 7.0 13.0 0.00 0.01 0.01 56 1016.5
20260505214033 59 253 3.5 9.6 0.00 0.01 0.01 54 1016.5
20260505213604 60 260 4.3 8.7 0.00 0.01 0.01 52 1016.4
20260505213026 60 271 3.5 8.7 0.00 0.01 0.01 50 1016.4
20260505212539 61 243 1.7 7.0 0.00 0.01 0.01 50 1016.4
20260505212050 61 357 2.6 7.0 0.00 0.01 0.01 50 1016.3
20260505211531 61 267 1.7 6.1 0.00 0.01 0.01 51 1016.3
20260505211022 60 205 3.5 6.1 0.00 0.01 0.01 50 1016.5
20260505210037 61 329 1.7 6.1 0.00 0.01 0.01 50 1016.6
20260505205530 61 323 2.6 6.1 0.00 0.01 0.01 51 1016.5
20260505205041 62 321 3.5 6.1 0.00 0.01 0.01 50 1016.5
20260505204606 62 11 0.9 5.2 0.00 0.01 0.01 51 1016.5
20260505204028 61 54 0.9 7.0 0.00 0.01 0.01 51 1016.6
20260505203537 61 285 3.5 7.0 0.00 0.01 0.01 52 1016.8
20260505203048 61 261 1.7 5.2 0.00 0.01 0.01 52 1016.9
20260505202600 61 97 2.6 6.1 0.00 0.01 0.01 52 1017.0
20260505202048 60 179 0.9 7.0 0.00 0.01 0.01 53 1016.8
20260505201523 60 328 2.6 7.0 0.00 0.01 0.01 54 1016.9
20260505201035 60 285 2.6 7.0 0.00 0.01 0.01 55 1016.9
20260505200547 59 293 3.5 7.0 0.00 0.01 0.01 55 1016.9
20260505200037 59 309 1.7 5.2 0.00 0.01 0.01 57 1017.0
20260505195542 58 302 2.6 6.1 0.00 0.01 0.01 59 1017.0
20260505195050 57 319 1.7 6.1 0.00 0.01 0.01 59 1017.2
20260505194556 57 325 1.7 5.2 0.00 0.01 0.01 59 1017.4
20260505194026 57 260 2.6 7.0 0.01 0.01 0.01 61 1017.3
20260505193558 57 281 3.5 7.0 0.01 0.01 0.01 62 1017.4
20260505193039 57 266 2.6 5.2 0.01 0.01 0.01 61 1017.3
20260505192532 57 342 0.9 7.0 0.01 0.01 0.01 64 1017.4
20260505192041 57 276 2.6 7.0 0.01 0.01 0.01 65 1017.5
20260505191524 57 293 3.5 6.1 0.01 0.01 0.01 66 1017.6
20260505191035 56 355 1.7 7.0 0.01 0.01 0.01 71 1017.6
20260505190547 56 284 1.7 7.0 0.01 0.01 0.01 75 1017.6
20260505190026 55 259 1.7 5.2 0.01 0.01 0.01 76 1017.6
20260505185540 55 304 2.6 5.2 0.01 0.01 0.01 72 1017.6
20260505185021 54 291 2.6 6.1 0.01 0.01 0.01 71 1017.6
20260505184553 55 281 1.7 7.0 0.01 0.01 0.01 69 1017.7
20260505184024 56 281 4.3 7.0 0.00 0.00 0.00 63 1017.7
20260505183534 56 264 1.7 7.0 0.00 0.00 0.00 60 1017.6
20260505183041 57 271 4.3 9.6 0.00 0.00 0.00 58 1017.6
20260505182524 58 269 7.0 9.6 0.00 0.00 0.00 54 1017.3
20260505182033 58 269 3.5 8.7 0.00 0.00 0.00 53 1017.4
20260505181543 59 275 4.3 8.7 0.00 0.00 0.00 51 1017.5
20260505181025 60 324 5.2 7.8 0.00 0.00 0.00 48 1017.4
20260505180534 60 243 1.7 7.0 0.00 0.00 0.00 46 1017.4
20260505180046 61 203 2.6 6.1 0.00 0.00 0.00 46 1017.4
20260505175558 62 229 3.5 7.8 0.00 0.00 0.00 45 1017.3
20260505175106 61 202 2.6 7.8 0.00 0.00 0.00 46 1017.3
20260505174535 61 210 3.5 7.0 0.00 0.00 0.00 45 1017.3
20260505174037 60 142 2.6 5.2 0.00 0.00 0.00 46 1017.4
20260505173528 60 183 2.6 5.2 0.00 0.00 0.00 48 1017.3
20260505173034 59 210 1.7 6.1 0.00 0.00 0.00 48 1017.3
20260505172527 59 50 3.5 6.1 0.00 0.00 0.00 48 1017.4
20260505172026 59 65 0.9 4.3 0.00 0.00 0.00 48 1017.4
20260505171537 58 262 2.6 4.3 0.00 0.00 0.00 49 1017.4
20260505171046 58 282 0.0 3.5 0.00 0.00 0.00 50 1017.5
20260505170558 58 25 1.7 3.5 0.00 0.00 0.00 49 1017.7
20260505170040 57 316 0.9 4.3 0.00 0.00 0.00 50 1017.9
20260505165534 56 336 1.7 5.2 0.00 0.00 0.00 52 1017.8
20260505165043 56 329 3.5 5.2 0.00 0.00 0.00 51 1017.7
20260505164525 56 323 2.6 5.2 0.00 0.00 0.00 51 1017.5
20260505164057 56 37 0.9 5.2 0.00 0.00 0.00 54 1017.5
20260505163527 56 347 2.6 7.8 0.00 0.00 0.00 54 1017.8
20260505163029 55 348 3.5 7.8 0.00 0.00 0.00 55 1017.7
20260505162543 55 33 4.3 6.1 0.00 0.00 0.00 56 1017.7
20260505162032 54 13 2.6 7.8 0.00 0.00 0.00 56 1017.7
20260505161530 54 335 3.5 8.7 0.00 0.00 0.00 58 1018.0
20260505161101 54 337 4.3 8.7 0.00 0.00 0.00 59 1018.1
20260505160532 54 12 4.3 8.7 0.00 0.00 0.00 59 1018.1
20260505153026 54 336 4.3 11.3 0.00 0.00 0.00 61 1018.3
20260505152609 54 335 5.2 11.3 0.00 0.00 0.00 62 1018.3
20260505152027 54 339 4.3 9.6 0.00 0.00 0.00 62 1018.4
20260505151538 54 4 4.3 9.6 0.00 0.00 0.00 62 1018.4
20260505151020 54 328 3.5 7.0 0.00 0.00 0.00 65 1018.3
20260505150533 54 15 3.5 7.8 0.00 0.00 0.00 65 1018.4
20260505140525 55 344 5.2 16.5 0.00 0.00 0.00 53 1018.6
20260505125026 58 269 0.0 2.6 0.00 0.00 0.00 45 1017.5
20260505124538 58 325 0.0 4.3 0.00 0.00 0.00 44 1017.2
20260505124050 58 334 1.7 4.3 0.00 0.00 0.00 44 1017.4
20260505123531 58 319 1.7 3.5 0.00 0.00 0.00 44 1017.5
20260505123022 58 316 0.9 3.5 0.00 0.00 0.00 44 1017.5
20260505122535 58 269 0.0 4.3 0.00 0.00 0.00 44 1017.5
20260505122036 58 278 0.9 4.3 0.00 0.00 0.00 43 1017.5
20260505121601 58 271 0.0 6.1 0.00 0.00 0.00 43 1017.5
20260505121031 58 274 2.6 6.1 0.00 0.00 0.00 43 1017.6
20260505120543 58 238 0.9 4.3 0.00 0.00 0.00 42 1017.5
20260505120026 57 6 0.0 1.7 0.00 0.00 0.00 41 1017.4
20260505115540 57 89 0.0 0.9 0.00 0.00 0.00 41 1017.3
20260505115040 57 98 0.0 0.0 0.00 0.00 0.00 40 1017.3
20260505114531 57 98 0.0 0.0 0.00 0.00 0.00 41 1017.3